Location: Allie Creek
(37.5926°N, 89.8526°W)
Time: 04:30:47
(UTC+00:00)

Cosmos 2297 Rocket - Pass Details

Date: 26 September 2023
Orbit: 838 x 844 km, 71.0° (Epoch: 29 November)

Event Time Altitude Azimuth Distance (km) Brightness Sun altitude
Rises 10:57:01 0° 181° (S) 3,373 5.2 -11.4°
Reaches altitude 10° 10:59:34 10° 175° (S) 2,443 4.6 -10.9°
Maximum altitude 11:04:48 42° 105° (ESE) 1,180 3.6 -9.9°
Drops below altitude 10° 11:10:04 10° 37° (NE) 2,457 5.3 -8.8°
Sets 11:12:37 0° 30° (NNE) 3,395 5.9 -8.3°
